Showing default

OPS 3662 (VELA 3), 836

Orbit data source: Space-Track

OPS 3662 (VELA 3), 836 is a payload satellite owned by USAF SSD (US) in HEO that was launched on Fri, 17 Jul 1964 UTC via an ATLAS AGENA D launch vehicle from the Air Force Eastern Test Range (AFETR). Payload-class satellites include a variety of spacecraft equipped with specific instruments for various scientific and technological missions. These include communications satellites like Starlink; space stations such as the ISS; scientific satellites like the Hubble; Earth observation satellites from companies like Planet Labs, Umbra, and HawkEye 360; GPS; miniature CubeSats for education and research; and military/defense satellites.

Loading next visibility...
Identifier
836, 1964-040A
Orbit
HEO
Country
Flag of USUS
Related business
Manufacturer
TRW
Mission
Spacecraft
Bus & Motor
VELA, BE-3
Mass
~227 kg wet, 125 kg dry
Launch date (UTC)
1964-07-17 (61 years ago)
Launch vehicle
ATLAS AGENA D
Launch site
Air Force Eastern Test Range (AFETR)
Object type
Payload
Rocket body
Debris
Shape & HBR
Unknown
Radar Cross Section
Medium (>0.1 m² and <1 m²)

Expand to show TLE details & history
Last TLE update: 1 month ago

TLE from 1 month ago
0 OPS 3662 (VELA 3)
1 00836U 64040A   25315.32311917  .00000608  00000-0  00000-0 0  9998
2 00836  51.9573 123.1715 4744226 284.4381   0.7761  0.23916737 10479
Epoch: 2025-11-11T07:45Z
TLE epoch observation values (Epoch: 2025-11-11T07:45:17.496Z)
Latitude
-48.87544°
Longitude
-108.17438°
Altitude
50,965.582 km
Speed
3.205 km/s
True Right ascension
03h 55m 26s
True Declination
-48° 51' 15"
Sunlit
Object was in daylight at epoch
Visualization orbit readout
Latitude
Unknown
Longitude
Unknown
Altitude
Unknown
Speed
Unknown
Apparent Right ascension
Unknown
Apparent Declination
Unknown
Sunlit
N/A
Visualization observer readout
Local Sidereal Time
07:35:36
Azimuth
Unknown
Elevation
Unknown
Doppler factor
Unknown
Orbital elements
Apogee altitude
155,264.638 km
Perigee altitude
51,241.564 km
Semi-major axis
109,631.238 km
Eccentricity
0.47442
Inclination
51.9573°
RAAN
123.1715°
Arg. of periapsis
284.4381°
True anomaly
2.47279°
Mean anomaly
0.7761°
Eccentric anomaly
1.47651°
Mean motion
0.05979 °/min
Orbital period
6,020.89 mins
BSTAR
0
Loading maneuver chart data...
Computing Atmospheric mass density...
Loading historical data...
Loading historical data...
Loading historical data...
Loading historical data...
Loading historical data...
Loading historical data...
Loading historical data...
Other satellites on launch #40 in the year 1964 (1964-07-17 UTC)

Documentation

Showing up to 5 results
|